This demonstration page uses our WeatherBlox Daily Observations layout. Learn more.

Left ArrowRight Arrow

38.89511, -77.03637

Hourly Observations for December 31, 2018

Temp ( °F °C ) Dew Point ( °F °C ) Humidity (%) Winds ( mph kmh ) Pressure ( in mb ) Visibility ( mi km ) Precip ( " mm )
12:52 am 00:52 Mostly Cloudy 39 3.9 34 1.1 82 82 Calm 30.28 1025 10 16 0.00 0.00
1:52 am 01:52 Mostly Cloudy 40 4.4 33 0.6 77 77 Calm 30.29 1026 10 16 0.00 0.00
2:52 am 02:52 Mostly Cloudy 39 3.9 33 0.6 79 79 Calm 30.30 1026 10 16 0.00 0.00
3:52 am 03:52 Cloudy 39 3.9 34 1.1 82 82 NE 5 7 30.28 1025 10 16 0.00 0.00
3:59 am 03:59 Cloudy 39 3.9 34 1.1 82 82 NE 7 11 30.30 1026 10 16 0.00 0.00
4:52 am 04:52 Cloudy 40 4.4 36 2.2 86 86 NE 5 7 30.27 1025 10 16 0.00 0.00
5:52 am 05:52 Cloudy 41 5 36 2.2 82 82 NNE 3 6 30.29 1026 10 16 0.00 0.00
6:52 am 06:52 Cloudy 42 5.6 38 3.3 85 85 NNE 5 7 30.28 1025 10 16 0.00 0.00
7:30 am 07:30 Cloudy 43 6.1 39 3.9 86 86 ENE 6 9 30.27 1025 10 16 0.00 0.00
7:52 am 07:52 Cloudy 44 6.7 39 3.9 83 83 NE 3 6 30.30 1026 10 16 0.00 0.00
8:52 am 08:52 Cloudy 46 7.8 40 4.4 79 79 SSE 3 6 30.32 1027 10 16 0.00 0.00
9:52 am 09:52 Cloudy 46 7.8 40 4.4 79 79 S 5 7 30.30 1026 10 16 0.00 0.03
10:15 am 10:15 Cloudy 47 8.3 41 5 80 80 Calm 30.27 1025 10 16 0.00 0.00
10:52 am 10:52 Cloudy 48 8.9 41 5 77 77 Calm 30.26 1025 10 16 0.00 0.00
11:43 am 11:43 Cloudy with Rain 48 8.9 42 5.6 80 80 S 5 7 30.21 1023 4 6 0.01 0.25
11:52 am 11:52 Cloudy with Rain 47 8.3 42 5.6 83 83 Calm 30.21 1023 3 5 0.02 0.51
12:45 pm 12:45 Cloudy with Rain 48 8.9 44 6.7 86 86 ESE 7 11 30.18 1022 3 5 0.09 2.29
12:52 pm 12:52 Cloudy with Rain 47 8.3 44 6.7 90 90 Calm 30.17 1022 3 4 0.12 3.05
1:10 pm 13:10 Cloudy with Rain 47 8.3 44 6.7 90 90 VRB 3 6 30.18 1022 3 4 0.03 0.76
1:17 pm 13:17 Cloudy with Heavy Rain 47 8.3 44 6.7 90 90 ESE 5 7 30.18 1022 2 3 0.05 1.27
1:44 pm 13:44 Cloudy with Rain 47 8.3 44 6.7 90 90 Calm 30.18 1022 3 5 0.12 3.05
1:52 pm 13:52 Cloudy with Rain 47 8.3 44 6.7 90 90 ESE 6 9 30.15 1021 3 5 0.14 3.56
2:00 pm 14:00 Cloudy with Rain 47 8.3 44 6.7 90 90 ESE 5 7 30.15 1021 3 4 0.01 0.25
2:17 pm 14:17 Cloudy with Light Rain 47 8.3 44 6.7 90 90 ESE 6 9 30.15 1021 3 5 0.04 1.02
2:50 pm 14:50 Cloudy with Rain 46 8 45 7 93 93 ESE 5 7 30.12 1020 2 3 0.10 2.54
2:52 pm 14:52 Cloudy with Rain 47 8.3 44 6.7 90 90 SE 3 6 30.13 1020 2 3 0.11 2.79
3:04 pm 15:04 Cloudy with Light Rain 47 8.3 44 6.7 90 90 SE 5 7 30.12 1020 3 5 0.02 0.51
3:25 pm 15:25 Cloudy with Light Rain 47 8.3 45 7.2 93 93 E 5 7 30.12 1020 3 4 0.02 0.51
3:41 pm 15:41 Cloudy with Drizzle 47 8.3 45 7.2 93 93 E 5 7 30.09 1019 3 4 0.02 0.51
3:50 pm 15:50 Cloudy with Light Rain 46 8 45 7 93 93 Calm 30.12 1020 2 2 0.03 0.76
3:52 pm 15:52 Cloudy with Light Rain 47 8.3 45 7.2 93 93 E 3 6 30.10 1019 2 2 0.03 0.76
4:37 pm 16:37 Cloudy with Drizzle 47 8.3 45 7.2 93 93 ESE 5 7 30.06 1018 2 3 0.01 0.25
4:52 pm 16:52 Cloudy with Drizzle 47 8.3 45 7.2 93 93 ESE 3 6 30.06 1018 4 6 0.01 0.25
5:52 pm 17:52 Cloudy with Drizzle 48 8.9 45 7.2 89 89 Calm 30.05 1018 3 5 0.01 0.25
5:55 pm 17:55 Cloudy with Light Rain 48 8.9 45 7.2 89 89 Calm 30.03 1017 3 4 0.00 0.03
6:37 pm 18:37 Cloudy with Light Rain 47 8.3 45 7.2 93 93 S 3 6 30.03 1017 3 5 0.01 0.25
6:52 pm 18:52 Cloudy with Light Rain 48 8.9 46 7.8 93 93 Calm 30.02 1017 4 6 0.02 0.51
7:11 pm 19:11 Cloudy with Drizzle 48 8.9 46 7.8 93 93 Calm 30.00 1016 3 4 0.00 0.03
7:17 pm 19:17 Cloudy with Drizzle 48 8.9 46 7.8 93 93 Calm 30.00 1016 2 2 0.00 0.03
7:22 pm 19:22 Cloudy with Drizzle 47 8.3 44 6.7 90 90 Calm 30.00 1016 1 1 0.00 0.03
7:47 pm 19:47 Cloudy with Drizzle 46 8 45 7 93 93 Calm 30.00 1016 1 2 0.00 0.03
7:52 pm 19:52 Cloudy with Drizzle 47 8.3 45 7.2 93 93 Calm 29.98 1015 1 2 0.00 0.03
8:14 pm 20:14 Cloudy with Drizzle 48 8.9 46 7.8 93 93 Calm 29.97 1015 2 3 0.01 0.25
8:19 pm 20:19 Cloudy with Drizzle 48 8.9 46 7.8 93 93 S 3 6 29.97 1015 2 3 0.01 0.25
8:32 pm 20:32 Cloudy with Drizzle 47 8.3 46 7.8 97 97 S 5 7 29.94 1014 1 1 0.01 0.25
8:49 pm 20:49 Cloudy with Drizzle 48 9 46 8 94 94 SSW 5 7 29.94 1014 1 2 0.01 0.25
8:52 pm 20:52 Cloudy with Drizzle 48 8.9 46 7.8 93 93 S 6 9 29.93 1014 1 2 0.01 0.25
9:10 pm 21:10 Cloudy with Drizzle 49 9.4 47 8.3 93 93 SSW 3 6 29.94 1014 2 3 0.00 0.03
9:13 pm 21:13 Cloudy with Drizzle 49 9.4 47 8.3 93 93 S 6 9 29.91 1013 2 3 0.00 0.03
9:40 pm 21:40 Cloudy with Drizzle 50 10 47 8.3 89 89 SW 5 7 29.91 1013 3 4 0.00 0.03
9:49 pm 21:49 Cloudy with Light Rain 50 10 48 9 94 94 SSW 6 9 29.91 1013 3 5 0.00 0.03
9:52 pm 21:52 Cloudy with Light Rain 50 10 48 8.9 93 93 SW 7 11 29.91 1013 3 5 0.00 0.03
10:03 pm 22:03 Cloudy with Mist and Fog 50 10 48 8.9 93 93 SSW 6 9 29.91 1013 3 4 0.00 0.03
10:24 pm 22:24 Cloudy with Drizzle 50 10 48 8.9 93 93 S 5 7 29.88 1012 2 3 0.00 0.03
10:52 pm 22:52 Mostly Cloudy with Drizzle 50 10 48 8.9 93 93 SW 5 7 29.87 1012 1 2 0.01 0.25
11:52 pm 23:52 Mostly Cloudy with Drizzle 51 10.6 49 9.4 92 92 SSW 6 9 29.84 1011 1 2 0.00 0.03
11:56 pm 23:56 Mostly Cloudy with Drizzle 51 10.6 49 9.4 92 92 SSW 6 9 29.83 1010 1 1 0.00 0.03

Powered by AerisWeather